Location: Dalton
(34.7700°N, 84.9700°W)
Time: 21:40:43
(UTC-05:00)

OTV 5 (USA 277) - Pass Details

Date: 10 October 2017
Orbit: 404 x 417 km, 43.0° (Epoch: 07 September)

Event Time Altitude Azimuth Distance (km) Brightness Sun altitude
Rises 21:17:48 0° 272° (W) 2,349 ? -26.7°
Reaches altitude 10° 21:20:07 10° 285° (WNW) 1,487 ? -27.2°
Enters shadow 21:21:37 20° 306° (NW) 1,030 ? -27.5°
